Laguepe — 9HAI9 — position and weather

sailwx.info

Track history (hours):
 
Tides and Currents Weather Stations Pressure Air Temp Water Temp Dewpoint Dewpoint Depression Visibility Wind Speed Wind Dir Waves Ship Positions

Laguepe

Last reported at 2014-Jul-22 20:06 UTC. Time now 2014-Jul-25 06:45 UTC.
Position N 43°23' E 004°48'.

Length 81 m; draft 2.8 m.

Type: Cargo ship. MMSI: 256681000.

Date/timePositionNaut miles runAvg speedWind from/ knotsBaromVisibWave heightAir tempDewpointWater temp
2014-Jul-22 20:06N 43°23' E 004°48'0 0.1
2014-Jul-22 19:33N 43°23' E 004°49'4 4.2
2014-Jul-22 18:34N 43°24' E 004°54'5 5.1
2014-Jul-22 17:33N 43°20' E 004°59'5 5.3
2014-Jul-22 16:33N 43°17' E 005°05'6 5.5
2014-Jul-22 15:34N 43°14' E 005°11'5 5.0
2014-Jul-22 14:33N 43°11' E 005°17'21 6.7
2014-Jul-22 11:29N 43°03' E 005°43'6 6.8
2014-Jul-22 10:33N 43°00' E 005°51'7 6.6
2014-Jul-22 09:33N 42°58' E 005°59'7 7.0
2014-Jul-22 08:33N 42°56' E 006°09'7 7.0
2014-Jul-22 07:33N 42°56' E 006°18'6 6.4
2014-Jul-22 06:34N 42°58' E 006°26'9 8.8
2014-Jul-22 05:33N 43°03' E 006°36'9 9.3
2014-Jul-22 04:33N 43°08' E 006°47'9 8.9
2014-Jul-22 03:33N 43°14' E 006°57'8 8.5
2014-Jul-22 02:33N 43°18' E 007°07'9 8.6
2014-Jul-22 01:28N 43°23' E 007°18'16 8.6
2014-Jul-21 23:33N 43°32' E 007°36'60 8.4
2014-Jul-21 16:27N 44°17' E 008°32'3 2.9
2014-Jul-21 15:32N 44°19' E 008°30'0 0.0
2014-Jul-21 14:33N 44°19' E 008°30'0 0.0
2014-Jul-21 11:33N 44°19' E 008°30'0 0.0
2014-Jul-21 04:33N 44°19' E 008°30'3 2.5
2014-Jul-21 03:33N 44°17' E 008°32'7 6.6
2014-Jul-21 02:34N 44°10' E 008°30'7 7.1
2014-Jul-21 01:34N 44°04' E 008°25'8 7.2
2014-Jul-21 00:26N 43°57' E 008°19'6 7.2
2014-Jul-20 23:33N 43°52' E 008°15'39 7.3
2014-Jul-20 18:09N 43°29' E 007°30'7 7.1
2014-Jul-20 17:05N 43°25' E 007°21'5 7.1
2014-Jul-20 16:21N 43°22' E 007°15'5 6.8
2014-Jul-20 15:33N 43°19' E 007°09'6 6.3
2014-Jul-20 14:32N 43°15' E 007°02'6 5.7
2014-Jul-20 13:33N 43°12' E 006°55'6 5.7
2014-Jul-20 12:33N 43°09' E 006°49'6 6.1
2014-Jul-20 11:33N 43°06' E 006°42'6 6.2
2014-Jul-20 10:33N 43°03' E 006°35'6 6.2
2014-Jul-20 09:34N 42°59' E 006°27'6 6.0
2014-Jul-20 08:33N 42°58' E 006°20'7 6.5
2014-Jul-20 07:33N 42°58' E 006°11'7 7.3
2014-Jul-20 06:34N 42°60' E 006°01'8 7.6
2014-Jul-20 05:33N 43°02' E 005°51'7 7.3
2014-Jul-20 04:33N 43°04' E 005°42'8 6.8
2014-Jul-20 03:26N 43°07' E 005°32'6 6.9
2014-Jul-20 02:33N 43°09' E 005°24'6 6.3
2014-Jul-20 01:33N 43°12' E 005°17'6 6.3
2014-Jul-20 00:33N 43°15' E 005°09'6 6.2
2014-Jul-19 23:34N 43°18' E 005°02'5 5.1
2014-Jul-19 22:34N 43°22' E 004°57'6 6.4
2014-Jul-19 21:33N 43°23' E 004°49'0 0.3
2014-Jul-19 20:33N 43°23' E 004°48'0 0.2
2014-Jul-19 19:29N 43°23' E 004°48'0 0.0
2014-Jul-19 18:29N 43°23' E 004°48'0 0.0
2014-Jul-19 17:32N 43°23' E 004°48'0 0.0
2014-Jul-19 16:31N 43°23' E 004°48'0 0.0
2014-Jul-19 15:33N 43°23' E 004°48'0 0.0
2014-Jul-19 14:33N 43°23' E 004°48'0 0.0
2014-Jul-19 13:33N 43°23' E 004°48'0 0.0
2014-Jul-19 12:33N 43°23' E 004°48'  
2014-Jul-15 17:34N 43°23' E 004°49'5 4.7
2014-Jul-15 16:34N 43°24' E 004°55'7 6.7
2014-Jul-15 15:33N 43°19' E 005°01'7 6.8
2014-Jul-15 14:33N 43°15' E 005°09'8 8.3
2014-Jul-15 13:34N 43°11' E 005°19'18 8.6
2014-Jul-15 11:30N 43°04' E 005°41'8 8.5
2014-Jul-15 10:33N 43°01' E 005°52'8 7.9
2014-Jul-15 09:33N 42°59' E 006°02'8 8.3
2014-Jul-15 08:33N 42°58' E 006°13'9 9.0
2014-Jul-15 07:33N 42°59' E 006°26'10 9.4
2014-Jul-15 06:32N 43°03' E 006°37'9 9.5
2014-Jul-15 05:33N 43°09' E 006°48'9 9.5
2014-Jul-15 04:33N 43°14' E 006°58'10 9.5
2014-Jul-15 03:33N 43°19' E 007°09'10 9.4
2014-Jul-15 02:30N 43°24' E 007°21'46 9.3
2014-Jul-14 21:33N 43°50' E 008°14'9 9.6
2014-Jul-14 20:33N 43°58' E 008°20'11 9.3
2014-Jul-14 19:24N 44°08' E 008°28'8 9.1
2014-Jul-14 18:33N 44°15' E 008°32'5 4.5
2014-Jul-14 17:33N 44°19' E 008°30'0 0.0
2014-Jul-14 15:21N 44°19' E 008°30'0 0.0
2014-Jul-14 08:18N 44°19' E 008°30'0 0.0
2014-Jul-14 04:21N 44°19' E 008°30'3 4.3
2014-Jul-14 03:33N 44°16' E 008°32'7 7.0
2014-Jul-14 02:33N 44°09' E 008°29'7 7.1
2014-Jul-14 01:33N 44°03' E 008°24'34 6.6
2014-Jul-13 20:29N 43°39' E 007°51'8 5.9
2014-Jul-13 19:08N 43°35' E 007°42'3 5.4
2014-Jul-13 18:33N 43°33' E 007°38'20 6.4
2014-Jul-13 15:24N 43°22' E 007°15'6 7.2
2014-Jul-13 14:33N 43°19' E 007°08'7 7.1
2014-Jul-13 13:33N 43°15' E 007°00'7 7.0
2014-Jul-13 12:33N 43°11' E 006°52'7 6.8
2014-Jul-13 11:33N 43°07' E 006°44'7 6.9
2014-Jul-13 10:29N 43°03' E 006°36'7 7.0
2014-Jul-13 09:33N 42°60' E 006°28'7 6.5
2014-Jul-13 08:33N 42°58' E 006°20'6 6.0
2014-Jul-13 07:33N 42°58' E 006°12'6 6.2
2014-Jul-13 06:33N 42°58' E 006°03'6 5.8
2014-Jul-13 05:33N 43°01' E 005°56'7 6.5
2014-Jul-13 04:33N 43°02' E 005°47'6 6.4
2014-Jul-13 03:33N 43°05' E 005°39'14 6.5
2014-Jul-13 01:28N 43°10' E 005°22'6 6.6
2014-Jul-13 00:33N 43°12' E 005°15'7 7.4
2014-Jul-12 23:33N 43°16' E 005°06'7 7.0
2014-Jul-12 22:33N 43°20' E 004°58'7 6.8
2014-Jul-12 21:33N 43°23' E 004°50'1 0.8
2014-Jul-12 20:26N 43°23' E 004°48'  
Track history (hours):
 
Tides and Currents Weather Stations Pressure Air Temp Water Temp Dewpoint Dewpoint Depression Visibility Wind Speed Wind Dir Waves Ship Positions

Laguepe

Last reported at 2014-Jul-22 20:06 UTC. Time now 2014-Jul-25 06:45 UTC.
Position N 43°23' E 004°48'.

Length 81 m; draft 2.8 m.

Type: Cargo ship. MMSI: 256681000.

Date/timePositionNaut miles runAvg speedWind from/ knotsBaromVisibWave heightAir tempDewpointWater temp
2014-Jul-22 20:06N 43°23' E 004°48'0 0.1
2014-Jul-22 19:33N 43°23' E 004°49'4 4.2
2014-Jul-22 18:34N 43°24' E 004°54'5 5.1
2014-Jul-22 17:33N 43°20' E 004°59'5 5.3
2014-Jul-22 16:33N 43°17' E 005°05'6 5.5
2014-Jul-22 15:34N 43°14' E 005°11'5 5.0
2014-Jul-22 14:33N 43°11' E 005°17'21 6.7
2014-Jul-22 11:29N 43°03' E 005°43'6 6.8
2014-Jul-22 10:33N 43°00' E 005°51'7 6.6
2014-Jul-22 09:33N 42°58' E 005°59'7 7.0
2014-Jul-22 08:33N 42°56' E 006°09'7 7.0
2014-Jul-22 07:33N 42°56' E 006°18'6 6.4
2014-Jul-22 06:34N 42°58' E 006°26'9 8.8
2014-Jul-22 05:33N 43°03' E 006°36'9 9.3
2014-Jul-22 04:33N 43°08' E 006°47'9 8.9
2014-Jul-22 03:33N 43°14' E 006°57'8 8.5
2014-Jul-22 02:33N 43°18' E 007°07'9 8.6
2014-Jul-22 01:28N 43°23' E 007°18'16 8.6
2014-Jul-21 23:33N 43°32' E 007°36'60 8.4
2014-Jul-21 16:27N 44°17' E 008°32'3 2.9
2014-Jul-21 15:32N 44°19' E 008°30'0 0.0
2014-Jul-21 14:33N 44°19' E 008°30'0 0.0
2014-Jul-21 11:33N 44°19' E 008°30'0 0.0
2014-Jul-21 04:33N 44°19' E 008°30'3 2.5
2014-Jul-21 03:33N 44°17' E 008°32'7 6.6
2014-Jul-21 02:34N 44°10' E 008°30'7 7.1
2014-Jul-21 01:34N 44°04' E 008°25'8 7.2
2014-Jul-21 00:26N 43°57' E 008°19'6 7.2
2014-Jul-20 23:33N 43°52' E 008°15'39 7.3
2014-Jul-20 18:09N 43°29' E 007°30'7 7.1
2014-Jul-20 17:05N 43°25' E 007°21'5 7.1
2014-Jul-20 16:21N 43°22' E 007°15'5 6.8
2014-Jul-20 15:33N 43°19' E 007°09'6 6.3
2014-Jul-20 14:32N 43°15' E 007°02'6 5.7
2014-Jul-20 13:33N 43°12' E 006°55'6 5.7
2014-Jul-20 12:33N 43°09' E 006°49'6 6.1
2014-Jul-20 11:33N 43°06' E 006°42'6 6.2
2014-Jul-20 10:33N 43°03' E 006°35'6 6.2
2014-Jul-20 09:34N 42°59' E 006°27'6 6.0
2014-Jul-20 08:33N 42°58' E 006°20'7 6.5
2014-Jul-20 07:33N 42°58' E 006°11'7 7.3
2014-Jul-20 06:34N 42°60' E 006°01'8 7.6
2014-Jul-20 05:33N 43°02' E 005°51'7 7.3
2014-Jul-20 04:33N 43°04' E 005°42'8 6.8
2014-Jul-20 03:26N 43°07' E 005°32'6 6.9
2014-Jul-20 02:33N 43°09' E 005°24'6 6.3
2014-Jul-20 01:33N 43°12' E 005°17'6 6.3
2014-Jul-20 00:33N 43°15' E 005°09'6 6.2
2014-Jul-19 23:34N 43°18' E 005°02'5 5.1
2014-Jul-19 22:34N 43°22' E 004°57'6 6.4
2014-Jul-19 21:33N 43°23' E 004°49'0 0.3
2014-Jul-19 20:33N 43°23' E 004°48'0 0.2
2014-Jul-19 19:29N 43°23' E 004°48'0 0.0
2014-Jul-19 18:29N 43°23' E 004°48'0 0.0
2014-Jul-19 17:32N 43°23' E 004°48'0 0.0
2014-Jul-19 16:31N 43°23' E 004°48'0 0.0
2014-Jul-19 15:33N 43°23' E 004°48'0 0.0
2014-Jul-19 14:33N 43°23' E 004°48'0 0.0
2014-Jul-19 13:33N 43°23' E 004°48'0 0.0
2014-Jul-19 12:33N 43°23' E 004°48'  
2014-Jul-15 17:34N 43°23' E 004°49'5 4.7
2014-Jul-15 16:34N 43°24' E 004°55'7 6.7
2014-Jul-15 15:33N 43°19' E 005°01'7 6.8
2014-Jul-15 14:33N 43°15' E 005°09'8 8.3
2014-Jul-15 13:34N 43°11' E 005°19'18 8.6
2014-Jul-15 11:30N 43°04' E 005°41'8 8.5
2014-Jul-15 10:33N 43°01' E 005°52'8 7.9
2014-Jul-15 09:33N 42°59' E 006°02'8 8.3
2014-Jul-15 08:33N 42°58' E 006°13'9 9.0
2014-Jul-15 07:33N 42°59' E 006°26'10 9.4
2014-Jul-15 06:32N 43°03' E 006°37'9 9.5
2014-Jul-15 05:33N 43°09' E 006°48'9 9.5
2014-Jul-15 04:33N 43°14' E 006°58'10 9.5
2014-Jul-15 03:33N 43°19' E 007°09'10 9.4
2014-Jul-15 02:30N 43°24' E 007°21'46 9.3
2014-Jul-14 21:33N 43°50' E 008°14'9 9.6
2014-Jul-14 20:33N 43°58' E 008°20'11 9.3
2014-Jul-14 19:24N 44°08' E 008°28'8 9.1
2014-Jul-14 18:33N 44°15' E 008°32'5 4.5
2014-Jul-14 17:33N 44°19' E 008°30'0 0.0
2014-Jul-14 15:21N 44°19' E 008°30'0 0.0
2014-Jul-14 08:18N 44°19' E 008°30'0 0.0
2014-Jul-14 04:21N 44°19' E 008°30'3 4.3
2014-Jul-14 03:33N 44°16' E 008°32'7 7.0
2014-Jul-14 02:33N 44°09' E 008°29'7 7.1
2014-Jul-14 01:33N 44°03' E 008°24'34 6.6
2014-Jul-13 20:29N 43°39' E 007°51'8 5.9
2014-Jul-13 19:08N 43°35' E 007°42'3 5.4
2014-Jul-13 18:33N 43°33' E 007°38'20 6.4
2014-Jul-13 15:24N 43°22' E 007°15'6 7.2
2014-Jul-13 14:33N 43°19' E 007°08'7 7.1
2014-Jul-13 13:33N 43°15' E 007°00'7 7.0
2014-Jul-13 12:33N 43°11' E 006°52'7 6.8
2014-Jul-13 11:33N 43°07' E 006°44'7 6.9
2014-Jul-13 10:29N 43°03' E 006°36'7 7.0
2014-Jul-13 09:33N 42°60' E 006°28'7 6.5
2014-Jul-13 08:33N 42°58' E 006°20'6 6.0
2014-Jul-13 07:33N 42°58' E 006°12'6 6.2
2014-Jul-13 06:33N 42°58' E 006°03'6 5.8
2014-Jul-13 05:33N 43°01' E 005°56'7 6.5
2014-Jul-13 04:33N 43°02' E 005°47'6 6.4
2014-Jul-13 03:33N 43°05' E 005°39'14 6.5
2014-Jul-13 01:28N 43°10' E 005°22'6 6.6
2014-Jul-13 00:33N 43°12' E 005°15'7 7.4
2014-Jul-12 23:33N 43°16' E 005°06'7 7.0
2014-Jul-12 22:33N 43°20' E 004°58'7 6.8
2014-Jul-12 21:33N 43°23' E 004°50'1 0.8
2014-Jul-12 20:26N 43°23' E 004°48'  

Dump ship's entire track history